EJU62YA LKPR-LFRS

Flight info

Callsign EJU62YA
Flight time 1h 50m
Altitude 36000
Route BALTU4B BALTU DCT DONAD DCT RAPET Z93 KODUK DCT MARZA DCT LOHRE DCT BOMBI DCT IDOSA DCT TOLVU/N0447F370 DCT RAPOR DCT ESTOC/N0443F350 UT300 PON UN872 GODIX/N0434F310 UN872 DIDAK/N0365F190 A5 VALAX VALAX1C
Aircraft A320/M-SDE3FGHIRWY/LB1

Departure

Time 2026-05-04 16:17
Airport Václav Havel Airport Prague (LKPR)

Arrival

Time 2026-05-04 18:07
Airport Nantes Atlantique Airport (LFRS)
Time Latitude Longitude Altitude Speed Heading
2026-05-04 15:36 50.10441 14.26589 1170 ft 0 kts 34°
2026-05-04 16:06 50.10417 14.26563 1169 ft 3 kts 54°
2026-05-04 16:07 50.10409 14.26529 1171 ft 3 kts 102°
2026-05-04 16:07 50.10410 14.26517 1169 ft 0 kts 118°
2026-05-04 16:09 50.10410 14.26518 1174 ft 1 kts 118°
2026-05-04 16:10 50.10400 14.26549 1171 ft 1 kts 117°
2026-05-04 16:11 50.10340 14.26612 1174 ft 7 kts 200°
2026-05-04 16:11 50.10304 14.26575 1171 ft 6 kts 213°
2026-05-04 16:12 50.10189 14.26623 1175 ft 9 kts 127°
2026-05-04 16:12 50.10062 14.26885 1190 ft 7 kts 128°
2026-05-04 16:13 50.09979 14.27055 1198 ft 13 kts 125°
2026-05-04 16:13 50.09839 14.27334 1203 ft 19 kts 132°
2026-05-04 16:14 50.09628 14.27662 1210 ft 23 kts 136°
2026-05-04 16:14 50.09407 14.28000 1215 ft 22 kts 135°
2026-05-04 16:15 50.09127 14.28243 1211 ft 10 kts 219°
2026-05-04 16:16 50.09082 14.28090 1208 ft 9 kts 304°
2026-05-04 16:16 50.10142 14.25900 1191 ft 166 kts 307°
2026-05-04 16:17 50.11602 14.23005 2486 ft 166 kts 306°
2026-05-04 16:18 50.13671 14.18679 4253 ft 168 kts 304°
2026-05-04 16:18 50.14397 14.17150 4658 ft 182 kts 305°
2026-05-04 16:19 50.17071 14.11536 5455 ft 248 kts 305°
2026-05-04 16:19 50.19289 14.06892 6652 ft 276 kts 305°
2026-05-04 16:20 50.22221 13.99196 9201 ft 278 kts 278°
2026-05-04 16:20 50.22286 13.93139 10506 ft 295 kts 267°
2026-05-04 16:21 50.22138 13.82718 12007 ft 332 kts 267°
2026-05-04 16:22 50.22037 13.75455 13428 ft 339 kts 266°
2026-05-04 16:22 50.21870 13.64228 15349 ft 349 kts 266°
2026-05-04 16:23 50.21677 13.52774 15964 ft 353 kts 266°
2026-05-04 16:24 50.21409 13.37250 18020 ft 364 kts 266°
2026-05-04 16:25 50.21258 13.29285 19095 ft 370 kts 266°
2026-05-04 16:26 50.20930 13.12974 21101 ft 381 kts 266°
2026-05-04 16:26 50.20667 13.00453 22567 ft 389 kts 266°
2026-05-04 16:27 50.20485 12.91944 23496 ft 395 kts 266°
2026-05-04 16:28 50.20199 12.78969 24670 ft 401 kts 266°
2026-05-04 16:28 50.19883 12.65854 25807 ft 407 kts 266°
2026-05-04 16:29 50.19433 12.48101 27259 ft 414 kts 266°
2026-05-04 16:30 50.19070 12.34523 28332 ft 420 kts 266°
2026-05-04 16:31 50.18940 12.25383 28996 ft 424 kts 268°
2026-05-04 16:31 50.18966 12.11510 29917 ft 429 kts 268°
2026-05-04 16:32 50.18920 11.97454 30697 ft 434 kts 268°
2026-05-04 16:33 50.18853 11.88109 31362 ft 432 kts 268°
2026-05-04 16:33 50.18799 11.78772 32093 ft 429 kts 269°
2026-05-04 16:34 50.18921 11.69491 32808 ft 427 kts 270°
2026-05-04 16:34 50.19013 11.64859 33178 ft 425 kts 270°
2026-05-04 16:35 50.19241 11.51238 34193 ft 422 kts 269°
2026-05-04 16:35 50.19387 11.37527 35020 ft 420 kts 269°
2026-05-04 16:36 50.19438 11.32985 35270 ft 420 kts 269°
2026-05-04 16:36 50.19533 11.23887 35757 ft 419 kts 269°
2026-05-04 16:37 50.19619 11.14790 35978 ft 418 kts 269°
2026-05-04 16:37 50.19658 11.10271 35972 ft 417 kts 269°
2026-05-04 16:38 50.19626 10.92248 35978 ft 415 kts 261°
2026-05-04 16:39 50.17735 10.69954 35963 ft 415 kts 261°
2026-05-04 16:40 50.16206 10.52078 35980 ft 415 kts 261°
2026-05-04 16:41 50.14236 10.29792 35975 ft 415 kts 260°
2026-05-04 16:43 50.12237 10.07559 35975 ft 415 kts 260°
2026-05-04 16:43 50.11014 9.94218 35972 ft 415 kts 260°
2026-05-04 16:45 50.08506 9.67575 35984 ft 415 kts 259°
2026-05-04 16:46 50.06653 9.45310 35980 ft 417 kts 266°
2026-05-04 16:47 50.06425 9.27278 35980 ft 417 kts 266°
2026-05-04 16:48 50.06173 9.09240 35986 ft 417 kts 265°
2026-05-04 16:49 50.05865 8.91190 35978 ft 417 kts 265°
2026-05-04 16:50 50.05036 8.73327 35967 ft 414 kts 259°
2026-05-04 16:51 50.03905 8.61470 35966 ft 414 kts 259°
2026-05-04 16:52 50.02198 8.43803 35965 ft 414 kts 258°
2026-05-04 16:53 50.00893 8.30508 35971 ft 415 kts 258°
2026-05-04 16:54 49.99131 8.12808 35974 ft 414 kts 258°
2026-05-04 16:55 49.96444 7.86331 35988 ft 414 kts 258°
2026-05-04 16:56 49.94170 7.64251 35993 ft 413 kts 257°
2026-05-04 16:57 49.92776 7.51093 35997 ft 414 kts 257°
2026-05-04 16:58 49.90855 7.33161 36001 ft 422 kts 257°
2026-05-04 17:00 49.87948 7.06331 36001 ft 421 kts 257°
2026-05-04 17:01 49.85461 6.83960 35990 ft 421 kts 257°
2026-05-04 17:02 49.83441 6.66090 35988 ft 421 kts 256°
2026-05-04 17:03 49.81917 6.52713 35990 ft 421 kts 256°
2026-05-04 17:03 49.80376 6.39334 35996 ft 421 kts 256°
2026-05-04 17:04 49.78294 6.21557 36005 ft 421 kts 256°
2026-05-04 17:05 49.76208 6.03896 36027 ft 416 kts 256°
2026-05-04 17:06 49.74623 5.90740 36021 ft 414 kts 256°
2026-05-04 17:07 49.72434 5.79479 36008 ft 410 kts 247°
2026-05-04 17:07 49.70178 5.69791 35989 ft 409 kts 247°
2026-05-04 17:08 49.67299 5.57460 35983 ft 409 kts 247°
2026-05-04 17:09 49.65377 5.49245 35981 ft 409 kts 247°
2026-05-04 17:09 49.63428 5.40968 35971 ft 409 kts 247°
2026-05-04 17:10 49.58934 5.20151 35968 ft 412 kts 254°
2026-05-04 17:11 49.57677 5.11539 35963 ft 412 kts 254°
2026-05-04 17:12 49.55712 4.98613 36252 ft 414 kts 253°
2026-05-04 17:12 49.54404 4.90052 36682 ft 414 kts 254°
2026-05-04 17:13 49.52397 4.77021 36963 ft 415 kts 254°
2026-05-04 17:14 49.49723 4.59827 36952 ft 415 kts 253°
2026-05-04 17:15 49.47688 4.46865 36956 ft 415 kts 253°
2026-05-04 17:16 49.44962 4.29636 36955 ft 415 kts 253°
2026-05-04 17:17 49.42207 4.12388 36957 ft 416 kts 253°
2026-05-04 17:18 49.39426 3.95161 36950 ft 416 kts 253°
2026-05-04 17:19 49.36607 3.77898 36953 ft 417 kts 253°
2026-05-04 17:20 49.33766 3.60664 36950 ft 417 kts 253°
2026-05-04 17:20 49.31626 3.47797 36946 ft 418 kts 253°
2026-05-04 17:21 49.28722 3.30550 36947 ft 418 kts 253°
2026-05-04 17:22 49.27272 3.21913 36943 ft 418 kts 253°
2026-05-04 17:23 49.24342 3.04694 36945 ft 418 kts 252°
2026-05-04 17:24 49.22118 2.91804 36946 ft 418 kts 252°
2026-05-04 17:25 49.19145 2.74595 36954 ft 418 kts 252°
2026-05-04 17:26 49.16157 2.57544 36951 ft 418 kts 252°
2026-05-04 17:27 49.12625 2.35957 36952 ft 421 kts 259°
2026-05-04 17:28 49.10998 2.18288 36963 ft 422 kts 259°
2026-05-04 17:29 49.06357 1.92767 36943 ft 417 kts 243°
2026-05-04 17:31 49.00303 1.72690 36941 ft 417 kts 243°
2026-05-04 17:32 48.94200 1.52672 36960 ft 418 kts 243°
2026-05-04 17:33 48.89288 1.36639 36961 ft 418 kts 243°
2026-05-04 17:34 48.84352 1.20614 36958 ft 419 kts 243°
2026-05-04 17:35 48.78122 1.00613 36960 ft 420 kts 242°
2026-05-04 17:36 48.75616 0.92607 36962 ft 421 kts 242°
2026-05-04 17:36 48.72820 0.84841 36961 ft 419 kts 237°
2026-05-04 17:37 48.69789 0.77333 36963 ft 419 kts 237°
2026-05-04 17:37 48.66757 0.69856 36966 ft 419 kts 236°
2026-05-04 17:38 48.63700 0.62343 36972 ft 419 kts 236°
2026-05-04 17:38 48.60645 0.54841 36971 ft 419 kts 236°
2026-05-04 17:39 48.56047 0.43588 36975 ft 419 kts 236°
2026-05-04 17:39 48.52976 0.36115 36974 ft 419 kts 236°
2026-05-04 17:40 48.49901 0.28651 36967 ft 419 kts 236°
2026-05-04 17:40 48.46837 0.21239 36968 ft 419 kts 236°
2026-05-04 17:41 48.43737 0.13744 36962 ft 419 kts 236°
2026-05-04 17:41 48.40646 0.06300 36965 ft 419 kts 236°
2026-05-04 17:42 48.37550 -0.01129 36613 ft 422 kts 235°
2026-05-04 17:42 48.35965 -0.04886 35773 ft 426 kts 234°
2026-05-04 17:42 48.34291 -0.08565 34962 ft 429 kts 231°
2026-05-04 17:43 48.32525 -0.12177 34133 ft 432 kts 229°
2026-05-04 17:43 48.30690 -0.15781 33289 ft 432 kts 229°
2026-05-04 17:43 48.28887 -0.19271 32772 ft 426 kts 229°
2026-05-04 17:43 48.27671 -0.21636 32382 ft 423 kts 229°
2026-05-04 17:44 48.25795 -0.24989 31813 ft 415 kts 222°
2026-05-04 17:44 48.23683 -0.27849 31258 ft 407 kts 217°
2026-05-04 17:44 48.21519 -0.30568 30723 ft 403 kts 217°
2026-05-04 17:44 48.18703 -0.34114 30005 ft 397 kts 216°
2026-05-04 17:45 48.16595 -0.36764 29429 ft 393 kts 216°
2026-05-04 17:45 48.15181 -0.38541 29085 ft 389 kts 216°
2026-05-04 17:45 48.13143 -0.41100 28577 ft 384 kts 216°
2026-05-04 17:45 48.11110 -0.43643 28078 ft 379 kts 216°
2026-05-04 17:46 48.09093 -0.46159 27584 ft 375 kts 216°
2026-05-04 17:46 48.07104 -0.48635 27093 ft 372 kts 216°
2026-05-04 17:46 48.05116 -0.51107 26627 ft 368 kts 217°
2026-05-04 17:46 48.03164 -0.53535 26177 ft 364 kts 217°
2026-05-04 17:47 48.01227 -0.55940 25718 ft 360 kts 217°
2026-05-04 17:47 47.99312 -0.58317 25285 ft 357 kts 217°
2026-05-04 17:47 47.97407 -0.60683 24860 ft 354 kts 217°
2026-05-04 17:47 47.95523 -0.63024 24428 ft 351 kts 217°
2026-05-04 17:48 47.93656 -0.65336 24008 ft 348 kts 217°
2026-05-04 17:48 47.91807 -0.67623 23581 ft 345 kts 217°
2026-05-04 17:48 47.89965 -0.69896 23115 ft 343 kts 217°
2026-05-04 17:48 47.88124 -0.72163 22693 ft 340 kts 217°
2026-05-04 17:49 47.86312 -0.74394 22260 ft 337 kts 217°
2026-05-04 17:49 47.84519 -0.76600 21847 ft 335 kts 217°
2026-05-04 17:49 47.82730 -0.78802 21406 ft 333 kts 217°
2026-05-04 17:49 47.80951 -0.80993 20993 ft 331 kts 217°
2026-05-04 17:50 47.79184 -0.83168 20563 ft 329 kts 218°
2026-05-04 17:50 47.77428 -0.85327 20137 ft 328 kts 217°
2026-05-04 17:50 47.75691 -0.87457 19708 ft 327 kts 217°
2026-05-04 17:50 47.73923 -0.89625 19264 ft 326 kts 218°
2026-05-04 17:51 47.72187 -0.91747 18834 ft 326 kts 217°
2026-05-04 17:51 47.70438 -0.93877 18401 ft 326 kts 217°
2026-05-04 17:51 47.68679 -0.96013 17920 ft 326 kts 218°
2026-05-04 17:51 47.66922 -0.98147 17497 ft 325 kts 218°
2026-05-04 17:52 47.65181 -1.00259 17069 ft 324 kts 218°
2026-05-04 17:52 47.63435 -1.02375 16646 ft 323 kts 218°
2026-05-04 17:52 47.61697 -1.04485 16240 ft 322 kts 218°
2026-05-04 17:52 47.59966 -1.06581 15824 ft 322 kts 218°
2026-05-04 17:53 47.58224 -1.08689 15408 ft 323 kts 218°
2026-05-04 17:53 47.56477 -1.10801 15001 ft 325 kts 218°
2026-05-04 17:53 47.54729 -1.12943 14569 ft 328 kts 219°
2026-05-04 17:53 47.53012 -1.15105 14156 ft 328 kts 219°
2026-05-04 17:54 47.51283 -1.17307 13725 ft 328 kts 219°
2026-05-04 17:54 47.49563 -1.19500 13262 ft 327 kts 220°
2026-05-04 17:54 47.47839 -1.21689 12839 ft 326 kts 219°
2026-05-04 17:54 47.46122 -1.23857 12435 ft 324 kts 218°
2026-05-04 17:55 47.44245 -1.25648 12017 ft 321 kts 207°
2026-05-04 17:55 47.42265 -1.27178 11604 ft 320 kts 206°
2026-05-04 17:55 47.40293 -1.28678 11217 ft 318 kts 206°
2026-05-04 17:55 47.38323 -1.30172 10797 ft 316 kts 206°
2026-05-04 17:56 47.36366 -1.31655 10407 ft 315 kts 206°
2026-05-04 17:56 47.34445 -1.33112 10244 ft 306 kts 206°
2026-05-04 17:56 47.32579 -1.34528 10120 ft 297 kts 206°
2026-05-04 17:56 47.30777 -1.35896 9845 ft 289 kts 206°
2026-05-04 17:57 47.28983 -1.37254 9277 ft 290 kts 206°
2026-05-04 17:57 47.27197 -1.38603 8909 ft 288 kts 206°
2026-05-04 17:57 47.25448 -1.39918 8538 ft 286 kts 206°
2026-05-04 17:57 47.23672 -1.41246 8163 ft 285 kts 206°
2026-05-04 17:58 47.21912 -1.42555 7770 ft 284 kts 206°
2026-05-04 17:58 47.20148 -1.43859 7391 ft 282 kts 206°
2026-05-04 17:58 47.18392 -1.45151 7017 ft 282 kts 206°
2026-05-04 17:58 47.16641 -1.46430 6626 ft 280 kts 206°
2026-05-04 17:59 47.14920 -1.47677 6249 ft 279 kts 206°
2026-05-04 17:59 47.13166 -1.48938 5881 ft 277 kts 206°
2026-05-04 17:59 47.09698 -1.51404 5189 ft 275 kts 206°
2026-05-04 18:00 47.07979 -1.52616 4848 ft 274 kts 206°
2026-05-04 18:00 47.06261 -1.53822 4461 ft 272 kts 206°
2026-05-04 18:00 47.04563 -1.55009 4017 ft 269 kts 206°
2026-05-04 18:00 47.02871 -1.56182 3663 ft 266 kts 206°
2026-05-04 18:01 47.01232 -1.57304 3535 ft 254 kts 206°
2026-05-04 18:01 46.99682 -1.58358 3411 ft 243 kts 206°
2026-05-04 18:01 46.98283 -1.59688 3212 ft 235 kts 230°
2026-05-04 18:02 46.97537 -1.63911 3002 ft 209 kts 279°
2026-05-04 18:02 46.97910 -1.65875 3027 ft 192 kts 296°
2026-05-04 18:02 46.98524 -1.67568 3027 ft 186 kts 302°
2026-05-04 18:02 46.99387 -1.68900 3001 ft 181 kts 335°
2026-05-04 18:03 47.00608 -1.69129 3024 ft 180 kts
2026-05-04 18:03 47.01856 -1.69072 3009 ft 179 kts 357°
2026-05-04 18:03 47.03084 -1.69186 2873 ft 171 kts 357°
2026-05-04 18:03 47.04225 -1.69092 2734 ft 161 kts 12°
2026-05-04 18:04 47.05242 -1.68598 2622 ft 146 kts 21°
2026-05-04 18:04 47.06128 -1.67994 2350 ft 139 kts 23°
2026-05-04 18:04 47.07900 -1.66672 1491 ft 148 kts 23°
2026-05-04 18:05 47.08805 -1.66005 1303 ft 142 kts 23°
2026-05-04 18:05 47.09667 -1.65361 1106 ft 139 kts 23°
2026-05-04 18:05 47.10526 -1.64713 929 ft 139 kts 24°
2026-05-04 18:05 47.11394 -1.64056 737 ft 141 kts 24°
2026-05-04 18:06 47.13128 -1.62739 362 ft 142 kts 24°
2026-05-04 18:06 47.13997 -1.62060 167 ft 141 kts 24°
2026-05-04 18:06 47.14839 -1.61447 98 ft 119 kts 27°
2026-05-04 18:07 47.15408 -1.61007 95 ft 67 kts 27°
2026-05-04 18:07 47.15677 -1.60802 98 ft 28 kts 27°
2026-05-04 18:07 47.15815 -1.60690 95 ft 14 kts 34°
2026-05-04 18:07 47.15837 -1.60596 95 ft 7 kts 96°
2026-05-04 18:08 47.15821 -1.60549 96 ft 3 kts 122°
2026-05-04 18:08 47.15812 -1.60529 96 ft 5 kts 124°
2026-05-04 18:08 47.15784 -1.60487 100 ft 4 kts 142°
2026-05-04 18:08 47.15764 -1.60466 99 ft 5 kts 145°
2026-05-04 18:09 47.15715 -1.60415 99 ft 8 kts 143°
2026-05-04 18:09 47.15666 -1.60351 99 ft 2 kts 134°
2026-05-04 18:10 47.15679 -1.60316 98 ft 5 kts 28°
2026-05-04 18:10 47.15687 -1.60304 98 ft 1 kts 39°
2026-05-04 18:10 47.15702 -1.60286 98 ft 2 kts 43°
2026-05-04 18:10 47.15711 -1.60273 98 ft 1 kts 44°
2026-05-04 18:11 47.15714 -1.60269 99 ft 0 kts 44°